SCP
0 0 0 0 0 0 0 1 1 1 1 1 1 1 1 1 1 1 0 0 0 0 0 0 0 0 0 0 0 0 0 0 0 0 0 0 0 0 0 0 0 0 0
0 0 0 0 0 1 1 1 1 1 1 1 1 1 1 1 1 1 0 0 0 0 0 0 0 0 0 0 0 0 0 0 0 0 0 0 0 0 0 0 0 0 0
0 0 0 1 1 1 1 1 1 1 1 1 1 0 0 0 0 0 0 0 0 0 0 0 0 0 0 0 0 0 0 0 0 0 0 0 0 0 0 0 0 0 0
0 0 0 1 1 1 1 1 1 1 1 1 0 0 0 0 0 0 0 0 0 0 0 0 0 0 0 0 0 0 0 0 0 0 0 0 0 0 0 0 0 0 0
1 1 1 1 1 1 1 1 1 1 1 1 0 0 0 0 0 0 0 0 0 0 0 0 0 0 0 0 0 0 0 0 0 0 0 0 0 0 0 0 0 0 0
1 1 1 1 1 1 1 1 1 1 1 1 0 0 0 0 0 0 0 0 0 0 0 0 0 0 0 0 0 0 0 0 0 0 0 0 0 0 0 0 0 0 0
1 1 1 1 1 1 1 1 1 1 1 1 1 0 0 0 0 0 0 0 0 0 0 0 0 0 0 0 0 0 0 0 0 0 0 0 0 0 0 0 0 0 0
1 1 1 1 1 1 1 1 1 1 1 1 0 0 0 0 0 0 0 0 0 0 0 0 0 0 0 0 0 0 0 0 0 0 0 0 0 0 0 0 0 0 0
1 1 1 1 1 1 1 1 1 1 1 0 0 0 0 0 0 0 0 0 0 0 0 0 0 0 0 0 0 0 0 0 0 0 0 0 0 0 0 0 0 0 0
1 1 1 1 1 1 1 1 1 1 1 0 0 0 0 0 0 0 0 0 0 0 0 0 0 0 0 0 0 0 0 0 0 0 0 0 0 0 0 0 0 0 0
0 0 1 1 1 1 1 1 1 1 0 0 0 0 0 0 0 0 0 0 0 0 0 0 0 0 0 0 0 0 0 0 0 0 0 0 0 0 0 0 0 0 0
0 0 0 0 1 1 1 0 0 0 0 0 0 0 0 0 0 0 0 0 0 0 0 0 0 0 0 0 0 0 0 0 0 0 0 0 0 0 0 0 0 0 0
1 0 0 0 1 1 0 0 0 0 0 0 0 0 0 0 0 0 0 0 0 0 0 0 0 0 0 0 0 0 0 0 0 0 0 0 0 0 1 1 1 0 0
1 0 0 1 1 1 0 0 0 0 0 0 0 0 0 0 0 0 0 0 0 0 0 0 0 0 0 0 0 0 0 0 0 0 0 0 0 0 0 1 1 1 0
1 1 1 1 1 1 1 1 1 0 0 0 0 0 0 0 0 0 0 0 0 0 0 0 0 0 0 0 0 0 0 0 0 0 0 0 0 0 0 1 1 1 1
1 1 1 1 1 1 1 1 1 0 0 0 0 0 0 0 0 0 0 0 0 0 0 0 0 0 0 0 0 0 0 0 0 0 0 0 0 0 0 0 1 1 1
1 1 1 1 1 1 1 1 0 0 0 0 0 0 0 0 0 0 0 0 0 0 0 0 0 0 0 0 0 0 0 0 0 0 0 0 0 0 0 0 0 1 1
1 1 1 1 1 1 0 0 0 0 0 0 0 0 0 0 0 0 0 0 0 0 0 0 0 0 0 0 0 0 0 0 0 0 0 0 0 0 0 0 0 0 0
1 1 1 1 1 0 0 0 0 0 0 0 0 0 0 0 0 0 0 0 0 0 0 0 0 0 0 0 0 0 0 0 0 0 0 0 0 0 0 0 0 0 0
1 1 1 1 0 0 0 0 0 0 0 0 0 0 0 0 0 0 0 0 0 0 0 0 0 0 0 0 0 0 0 0 0 0 0 0 0 0 0 0 0 0 0
0 1 1 1 0 0 0 0 0 0 0 0 0 0 0 0 0 0 0 0 0 0 0 0 0 0 0 0 0 0 0 0 0 0 0 0 0 0 0 0 0 0 0
1 1 1 1 0 0 0 0 0 0 0 0 0 0 0 0 0 0 0 0 0 0 0 0 0 0 0 0 0 0 0 0 0 0 0 0 0 0 0 0 0 0 0
1 1 1 1 0 0 0 0 0 0 0 0 0 0 0 0 0 0 0 0 0 0 0 0 0 0 0 0 0 0 0 0 0 0 0 0 0 0 0 0 0 0 0
1 1 1 0 0 0 0 0 0 0 0 0 0 0 0 0 0 0 0 0 0 0 0 0 0 0 0 0 0 0 0 0 0 0 0 0 0 0 0 0 0 0 0
1 1 1 0 0 0 0 0 0 0 0 0 0 0 0 0 0 0 0 -0 -0 -0 0 0 0 0 0 0 0 0 0 0 0 0 0 0 0 0 0 0 0 0 0
1 1 1 0 0 0 0 0 0 0 0 0 0 0 0 0 0 0 0 -0 -0 -0 0 0 0 0 0 0 0 0 0 0 0 0 0 0 0 0 0 0 0 0 0
Wind_Speed
7 9 15 16 16 15 16 16 16 16 15 15 15 14 14 13 12 12 11 10 9 8 7 7 6 6 6 6 6 6 6 5 6 6 6 6 7 8 8 9 9 7 10
11 11 16 16 16 16 15 15 15 15 15 14 14 13 13 12 11 10 9 8 7 7 6 6 6 5 5 4 4 4 4 4 4 5 5 5 6 7 8 8 9 6 9
12 11 14 16 16 16 15 15 15 14 14 14 13 12 12 11 10 9 8 7 6 6 5 5 4 4 4 3 3 3 3 3 3 3 3 2 3 6 8 9 9 9 10
12 10 11 17 16 16 15 14 14 13 13 12 12 11 10 10 9 8 7 6 5 5 4 3 3 3 3 2 2 2 2 2 2 3 2 2 2 6 7 9 10 10 10
10 9 11 17 16 15 15 14 13 13 12 11 11 10 9 8 7 6 6 5 4 3 3 3 2 2 2 1 1 1 2 2 2 1 2 2 3 5 7 9 10 10 10
10 8 11 17 16 15 14 13 12 12 11 10 9 9 8 7 6 5 4 3 3 2 2 2 2 1 1 1 2 2 2 2 2 1 1 2 3 7 9 10 10 11 11
9 7 9 15 15 14 13 13 12 11 10 9 8 7 6 5 5 4 3 2 1 1 1 1 1 1 2 3 3 3 4 4 1 1 2 2 4 8 9 10 11 11 11
10 7 7 14 14 13 13 12 11 10 9 8 7 6 5 4 3 3 2 1 1 1 1 2 2 3 3 3 4 4 5 5 3 2 2 3 5 8 9 11 11 12 12
8 7 5 6 8 11 12 11 10 9 8 7 6 5 5 4 3 2 1 0 1 1 2 3 3 3 4 4 4 5 5 5 2 2 3 3 6 9 10 11 12 12 12
6 5 5 5 4 5 6 9 9 8 7 6 5 4 3 2 1 1 0 1 1 1 2 2 3 3 3 4 5 5 5 4 2 3 3 4 7 8 10 11 12 12 12
7 5 4 5 4 4 4 5 6 6 5 4 3 3 2 1 1 1 2 1 2 2 2 3 3 3 3 3 4 4 4 1 2 2 3 5 7 8 9 9 11 11 12
9 7 5 5 4 4 4 3 2 3 2 2 2 1 1 1 1 1 2 2 2 2 2 3 3 3 3 2 3 3 1 2 2 2 3 6 7 7 7 8 9 10 11
8 7 5 5 5 4 3 3 2 1 2 2 2 2 2 1 1 1 1 2 2 3 2 3 3 2 2 2 2 2 2 2 1 2 3 6 6 6 7 7 8 10 10
7 7 6 6 5 4 3 3 2 2 1 1 1 2 2 1 1 0 0 1 1 1 1 1 1 2 2 2 2 2 2 1 2 2 3 6 6 7 7 7 8 9 10
7 6 5 5 5 4 3 2 3 2 2 1 1 1 2 1 1 0 0 0 1 1 1 1 1 2 2 3 2 2 3 3 3 3 3 6 7 7 7 7 8 8 8
6 5 5 5 5 4 3 3 2 2 2 2 1 1 1 1 1 0 0 1 1 1 1 1 1 1 2 2 3 3 3 3 3 3 3 4 6 6 6 7 7 7 7
6 5 5 5 5 5 4 3 3 2 2 2 1 1 1 1 1 1 0 1 1 1 1 1 2 1 2 2 3 3 3 3 3 3 3 3 3 5 6 5 6 6 7
5 5 5 5 5 4 4 3 3 3 2 2 1 1 1 1 2 1 1 1 1 1 1 1 1 1 2 2 2 3 2 3 3 3 3 3 2 3 4 5 5 5 6
5 5 5 5 5 4 4 3 3 3 2 1 1 1 1 1 2 2 1 0 1 1 1 1 1 1 2 3 3 2 2 2 3 3 2 3 2 2 2 4 5 6 6
5 4 5 4 4 4 4 3 3 2 2 1 1 1 1 1 1 2 1 1 1 1 1 1 1 1 1 2 3 3 3 3 2 2 2 2 2 2 3 3 3 3 5
5 5 5 5 4 4 3 3 2 2 1 1 1 1 1 1 1 2 1 1 1 0 1 1 1 2 2 2 2 3 3 2 2 2 2 2 2 2 2 2 2 2 2
5 5 5 5 4 4 3 3 2 2 2 1 0 1 1 1 1 1 1 0 0 0 1 2 1 1 1 1 1 1 3 3 2 2 2 2 2 2 2 2 2 2 2
6 6 5 5 4 3 3 3 3 3 2 1 1 0 1 1 1 1 0 0 0 0 1 2 1 0 1 2 1 1 1 2 3 3 2 2 2 2 3 2 3 2 2
6 5 5 5 4 4 4 4 5 3 2 2 2 1 0 1 1 1 1 0 0 0 1 1 1 1 1 2 2 1 2 2 2 3 3 2 3 3 3 3 3 3 3
5 5 5 5 4 4 4 5 4 3 2 1 1 1 0 1 1 1 0 0 1 1 1 2 1 1 1 2 1 1 1 2 3 3 4 3 3 2 3 3 3 3 3
5 5 5 5 4 4 4 4 5 5 4 3 2 1 1 1 1 1 1 1 1 1 1 2 2 2 2 2 2 2 2 2 2 3 4 3 4 3 3 3 3 3 3
Wind_Direction
160 160 158 151 144 137 131 127 123 120 118 116 115 115 116 118 120 122 124 125 126 127 123 119 115 110 107 107 108 112 115 120 129 135 143 148 152 156 158 155 149 147 149
149 155 155 151 145 139 134 131 128 125 123 121 119 119 119 120 120 121 123 125 127 127 125 123 118 113 111 112 115 119 123 131 144 153 160 161 166 170 171 166 161 162 159
142 150 153 151 146 141 137 134 132 130 127 125 124 124 123 122 122 123 124 126 129 127 125 120 121 119 117 117 119 127 135 149 167 181 166 153 183 186 185 180 174 170 168
141 145 150 151 147 144 141 138 136 134 132 130 129 128 127 126 126 127 126 126 129 128 129 126 125 127 131 140 145 152 170 191 204 197 163 185 214 204 195 190 181 178 174
138 141 153 150 148 146 144 142 140 138 136 135 134 132 130 130 131 133 134 134 133 135 141 145 144 145 150 167 192 221 227 228 229 207 190 213 225 221 205 195 188 185 181
139 142 154 150 149 147 146 145 143 141 139 139 138 136 136 137 137 140 143 142 144 154 165 171 177 194 218 238 255 259 262 264 261 260 229 225 219 225 214 201 195 191 187
141 142 152 151 150 150 149 148 147 145 144 143 142 140 140 141 144 149 153 156 165 184 204 222 236 252 260 269 273 275 275 272 236 225 236 236 224 227 221 208 201 197 194
142 141 148 154 152 152 152 151 149 147 146 146 145 144 144 145 153 161 172 190 207 236 251 264 273 278 277 278 278 277 274 272 267 244 243 245 238 236 229 217 206 202 200
135 138 141 149 153 154 152 152 151 148 147 147 148 149 148 147 150 154 162 193 247 264 274 278 280 278 277 280 282 281 276 272 264 245 254 247 245 241 232 219 208 203 203
132 140 142 140 140 146 152 155 152 146 144 145 147 146 143 140 137 131 68 356 330 321 311 312 311 301 299 300 294 287 282 281 266 258 257 254 249 241 232 223 216 210 208
148 151 148 145 142 140 141 153 149 144 141 144 147 147 136 72 41 23 353 335 316 309 312 325 326 327 328 326 318 312 305 285 267 262 257 265 259 248 240 228 220 217 213
168 169 161 155 148 142 149 136 120 130 128 126 114 112 97 89 56 34 3 344 337 340 341 348 351 352 349 334 327 329 322 299 279 271 267 274 270 258 247 236 225 221 219
167 165 165 160 152 151 142 128 121 119 115 112 106 105 105 95 62 30 13 351 346 356 1 3 3 353 347 332 322 316 306 301 285 276 278 279 276 266 253 241 225 223 224
158 168 169 165 157 157 145 135 132 132 127 126 129 125 123 117 98 71 6 331 351 359 8 3 352 341 339 328 317 313 314 304 287 276 274 281 277 273 265 252 234 229 228
168 173 166 158 156 156 148 145 144 146 145 145 132 132 138 138 144 157 343 3 359 4 1 339 336 340 339 329 317 317 313 303 299 293 290 290 284 277 268 257 243 235 234
169 168 155 152 155 157 157 153 149 146 139 126 118 124 131 132 136 137 46 21 354 343 339 327 324 327 316 311 314 313 305 301 293 290 287 292 295 289 276 261 256 245 240
167 157 153 156 154 157 156 156 143 134 130 126 123 114 119 128 137 130 80 11 342 343 346 354 344 333 318 316 314 314 312 308 300 292 289 285 291 293 289 277 266 257 248
151 144 152 157 149 154 152 140 129 125 127 128 124 114 111 118 124 117 95 12 348 3 1 350 346 332 322 314 303 304 309 302 295 291 294 293 291 294 302 299 284 264 255
152 148 144 141 146 151 136 123 117 117 123 127 118 116 117 116 123 119 113 27 28 28 358 336 353 320 310 311 298 295 298 290 290 289 294 295 293 297 298 297 296 283 265
145 143 141 139 139 139 126 114 111 110 111 106 118 134 126 122 117 106 97 38 43 37 356 336 316 318 295 304 305 307 296 286 284 275 281 290 294 298 303 298 300 299 287
144 145 150 152 151 143 136 143 142 147 140 133 139 129 120 113 106 102 86 40 34 11 313 327 323 326 328 332 331 318 305 286 273 264 282 290 301 303 306 301 300 305 297
164 162 158 163 161 162 165 162 153 145 150 149 124 59 65 88 98 124 110 86 4 336 347 344 346 328 322 350 337 323 324 323 312 292 291 282 296 303 307 305 298 286 290
169 170 168 160 160 162 145 128 116 96 80 77 59 359 341 34 57 64 100 174 212 143 298 308 314 299 302 310 280 227 285 293 311 302 286 289 300 296 295 295 288 274 274
181 166 160 156 154 153 145 147 152 151 164 189 187 195 289 9 26 31 16 333 264 286 291 294 304 275 263 289 289 241 232 237 269 303 303 291 286 281 286 288 287 280 270
169 167 160 155 156 153 151 153 155 152 159 155 142 141 116 331 332 332 325 23 16 340 298 296 300 289 252 261 274 268 259 253 236 251 286 301 301 285 285 288 280 273 266
164 163 158 156 161 160 159 164 165 163 161 161 178 187 227 293 311 310 310 345 332 308 296 292 285 283 270 263 263 245 240 253 247 239 258 280 292 294 300 287 276 268 263